Weather History for KCDA - June, 2013

Change the Weather History Date:

Sunday, June 23, 2013

  Actual Average (K1V4) Record (K1V4)
Temperature  
Mean Temperature 72 °F 68 °F  
Max Temperature 80 °F 79 °F 94 °F (1975)
Min Temperature 63 °F 56 °F 34 °F (1940)
Cooling Degree Days 6 4  
Month to date cooling degree days 59  
Year to date cooling degree days 77  
Since 1 June cooling degree days 59  
Growing Degree Days 22 (Base 50)    
Moisture  
Dew Point 64 °F    
Average Humidity 85    
Maximum Humidity 91    
Minimum Humidity 65    
Precipitation  
Precipitation 0.00 in 0.13 in 1.62 in (1990)
Month to date precipitation 3.05  
Year to date precipitation 16.46  
Sea Level Pressure  
Sea Level Pressure 30.09 in    
Wind  
Wind Speed 2 mph (South)    
Max Wind Speed 8 mph    
Max Gust Speed -    
Visibility 6 miles    
Events Fog , Rain    
T = Trace of Precipitation, MM = Missing Value Source: NWS Daily Summary

Daily Weather History Graph

Daily Weather History Graph

Search for Another Location

Airport or City:

Trip Planner

Search our weather history database for the weather conditions in past years. The results will help you decide how hot, cold, wet, or windy it might be!

Date:

Astronomy

Jun. 23, 2013 Rise Set
Actual Time 5:03 AM EDT 8:37 PM EDT
Civil Twilight 4:26 AM EDT 9:14 PM EDT
Nautical Twilight 3:37 AM EDT 10:02 PM EDT
Astronomical Twilight 2:33 AM EDT 11:06 PM EDT
Moon 8:42 PM EDT (6/23) 5:20 AM EDT (6/23)
Length of Visible Light 16h 47m
Length of Day
15h 33m
Full, 100% of the Moon is Illuminated
Jun 23
Full
Jun 30
Last Quarter
Jul 8
New
Jul 15
First Quarter
Jul 22
Full

Hourly Weather History & Observations

Time (EDT) Temp. Heat Index Dew Point Humidity Pressure Visibility Wind Dir Wind Speed Gust Speed Precip Events Conditions
12:15 AM 63.5 °F - 60.4 °F 90% 30.16 in 0.2 mi Calm Calm - N/A Fog Fog
12:35 AM 63.5 °F - 60.4 °F 90% 30.15 in 0.8 mi Calm Calm - N/A   Overcast
12:55 AM 63.5 °F - 60.4 °F 90% 30.16 in 0.8 mi West 4.6 mph - N/A Rain Light Rain
1:15 AM 63.5 °F - 60.4 °F 90% 30.15 in 2.5 mi Calm Calm - N/A Rain Rain
1:35 AM 63.5 °F - 60.4 °F 90% 30.15 in 1.0 mi Calm Calm - N/A Rain Light Rain
1:55 AM 63.5 °F - 60.4 °F 90% 30.15 in 0.5 mi Calm Calm - N/A Fog Fog
2:15 AM 63.5 °F - 60.6 °F 90% 30.14 in 0.8 mi Calm Calm - N/A   Overcast
2:35 AM 63.5 °F - 60.6 °F 90% 30.14 in 0.8 mi Calm Calm - N/A   Overcast
2:55 AM 63.5 °F - 60.8 °F 91% 30.14 in 1.2 mi Calm Calm - N/A   Overcast
3:15 AM 63.5 °F - 60.8 °F 91% 30.13 in 0.5 mi Calm Calm - N/A Fog Fog
3:35 AM 63.5 °F - 60.8 °F 91% 30.13 in 1.0 mi Calm Calm - N/A   Overcast
3:55 AM 63.5 °F - 60.8 °F 91% 30.12 in 0.5 mi Calm Calm - N/A Fog Fog
4:15 AM 63.5 °F - 60.8 °F 91% 30.12 in 0.2 mi Calm Calm - N/A Fog Fog
4:35 AM 63.5 °F - 60.8 °F 91% 30.12 in 2.0 mi Calm Calm - N/A   Overcast
4:55 AM 63.5 °F - 60.8 °F 91% 30.11 in 1.0 mi SSE 3.5 mph - N/A   Overcast
5:15 AM 63.5 °F - 60.8 °F 91% 30.12 in 1.5 mi Calm Calm - N/A   Overcast
5:35 AM 63.5 °F - 60.8 °F 91% 30.12 in 1.5 mi Calm Calm - N/A   Overcast
5:55 AM 63.5 °F - 60.8 °F 91% 30.12 in 2.5 mi Calm Calm - N/A Rain Rain
6:15 AM 63.5 °F - 60.8 °F 91% 30.13 in 3.0 mi Calm Calm - N/A   Overcast
6:35 AM 63.7 °F - 61.0 °F 91% 30.13 in 4.0 mi Calm Calm - N/A   Overcast
6:55 AM 63.9 °F - 61.2 °F 91% 30.13 in 4.0 mi Calm Calm - N/A   Overcast
7:15 AM 64.4 °F - 61.5 °F 90% 30.14 in 4.0 mi Calm Calm - N/A   Overcast
7:35 AM 65.3 °F - 62.6 °F 91% 30.14 in 4.0 mi SSE 4.6 mph - N/A   Overcast
7:55 AM 65.5 °F - 62.6 °F 90% 30.14 in 4.0 mi SSE 4.6 mph - N/A   Overcast
8:15 AM 66.6 °F - 63.0 °F 88% 30.14 in 5.0 mi SSE 3.5 mph - N/A   Overcast
8:35 AM 66.7 °F - 63.0 °F 88% 30.14 in 5.0 mi South 3.5 mph - N/A   Overcast
8:55 AM 67.1 °F - 62.6 °F 85% 30.14 in 7.0 mi SSE 4.6 mph - N/A   Overcast
9:15 AM 68.5 °F - 63.5 °F 84% 30.13 in 7.0 mi South 3.5 mph - N/A   Overcast
9:35 AM 68.9 °F - 63.7 °F 83% 30.12 in 7.0 mi South 3.5 mph - N/A   Overcast
9:55 AM 70.2 °F - 64.0 °F 81% 30.12 in 10.0 mi SSE 5.8 mph - N/A   Overcast
10:15 AM 70.9 °F - 64.4 °F 80% 30.11 in 10.0 mi Calm Calm - N/A   Overcast
10:35 AM 71.2 °F - 64.6 °F 79% 30.11 in 10.0 mi SSE 3.5 mph - N/A   Overcast
10:55 AM 71.4 °F - 64.6 °F 79% 30.11 in 10.0 mi South 3.5 mph - N/A   Overcast
11:15 AM 73.2 °F - 65.7 °F 77% 30.11 in 10.0 mi South 3.5 mph - N/A   Overcast
11:35 AM 72.9 °F - 65.1 °F 77% 30.11 in 10.0 mi Calm Calm - N/A   Overcast
11:55 AM 73.8 °F - 65.3 °F 75% 30.11 in 10.0 mi Calm Calm - N/A   Overcast
12:15 PM 75.2 °F - 66.2 °F 73% 30.09 in 10.0 mi East 3.5 mph - N/A   Overcast
12:35 PM 77.0 °F - 67.3 °F 72% 30.09 in 10.0 mi South 3.5 mph - N/A   Mostly Cloudy
12:55 PM 77.7 °F - 66.9 °F 69% 30.08 in 10.0 mi SW 4.6 mph - N/A   Mostly Cloudy
1:15 PM 78.1 °F - 67.3 °F 69% 30.07 in 10.0 mi South 3.5 mph - N/A   Mostly Cloudy
1:35 PM 80.4 °F 83.0 °F 67.8 °F 65% 30.07 in 10.0 mi SSW 4.6 mph - N/A   Scattered Clouds
1:55 PM 79.0 °F - 66.7 °F 66% 30.06 in 10.0 mi Calm Calm - N/A   Mostly Cloudy
2:15 PM 78.3 °F - 67.1 °F 68% 30.06 in 10.0 mi SSE 3.5 mph - N/A   Overcast
2:35 PM 77.4 °F - 67.6 °F 72% 30.05 in 10.0 mi SSE 4.6 mph - N/A   Overcast
2:55 PM 75.6 °F - 68.4 °F 78% 30.04 in 5.0 mi Calm Calm - N/A Rain Light Rain
3:35 PM 68.5 °F - 64.6 °F 87% 30.04 in 1.0 mi NW 5.8 mph - N/A Rain Rain
3:55 PM 71.4 °F - 66.7 °F 85% 30.04 in 7.0 mi ESE 4.6 mph - N/A   Scattered Clouds
4:15 PM 73.2 °F - 67.6 °F 83% 30.05 in 10.0 mi SW 3.5 mph - N/A   Mostly Cloudy
4:35 PM 71.2 °F - 67.1 °F 87% 30.04 in 7.0 mi SSW 3.5 mph - N/A   Mostly Cloudy
4:55 PM 71.1 °F - 67.1 °F 87% 30.03 in 5.0 mi ESE 5.8 mph - N/A   Mostly Cloudy
5:15 PM 71.1 °F - 67.1 °F 87% 30.02 in 5.0 mi SE 5.8 mph - N/A   Scattered Clouds
5:35 PM 71.6 °F - 65.3 °F 80% 30.01 in 10.0 mi SE 6.9 mph - N/A   Clear
5:55 PM 72.5 °F - 64.4 °F 76% 30.01 in 10.0 mi SE 5.8 mph - N/A   Clear
6:15 PM 71.2 °F - 64.2 °F 78% 30.03 in 10.0 mi South 4.6 mph - N/A   Clear
6:35 PM 70.5 °F - 63.7 °F 79% 30.04 in 10.0 mi SSE 8.1 mph - N/A   Mostly Cloudy
6:55 PM 70.3 °F - 64.2 °F 81% 30.03 in 10.0 mi South 5.8 mph - N/A   Mostly Cloudy
7:15 PM 70.2 °F - 64.9 °F 83% 30.02 in 10.0 mi South 5.8 mph - N/A   Scattered Clouds
7:35 PM 68.9 °F - 64.6 °F 86% 30.02 in 10.0 mi Calm Calm - N/A   Mostly Cloudy
7:55 PM 68.9 °F - 64.4 °F 86% 30.02 in 10.0 mi Calm Calm - N/A   Mostly Cloudy
8:15 PM 69.1 °F - 64.4 °F 85% 30.05 in 5.0 mi West 5.8 mph - N/A Rain Heavy Rain
8:35 PM 68.9 °F - 63.7 °F 83% 30.02 in 7.0 mi Calm Calm - N/A Rain Light Rain
8:55 PM 68.2 °F - 64.6 °F 88% 30.04 in 10.0 mi ESE 3.5 mph - N/A   Scattered Clouds
9:15 PM 68.5 °F - 64.9 °F 88% 30.04 in 10.0 mi Calm Calm - N/A   Mostly Cloudy
9:35 PM 67.8 °F - 63.9 °F 87% 30.04 in 10.0 mi Calm Calm - N/A   Mostly Cloudy
9:55 PM 67.6 °F - 64.0 °F 88% 30.05 in 10.0 mi Calm Calm - N/A   Drizzle
10:15 PM 67.3 °F - 63.9 °F 89% 30.06 in 7.0 mi Calm Calm - N/A Rain Rain
10:35 PM 67.3 °F - 64.0 °F 89% 30.06 in 7.0 mi Calm Calm - N/A   Overcast
10:55 PM 66.7 °F - 63.7 °F 90% 30.05 in 3.0 mi Calm Calm - N/A   Scattered Clouds
11:15 PM 66.7 °F - 63.7 °F 90% 30.05 in 5.0 mi Calm Calm - N/A   Scattered Clouds
11:35 PM 66.9 °F - 63.9 °F 90% 30.04 in 1.8 mi Calm Calm - N/A   Mostly Cloudy
11:55 PM 66.7 °F - 63.9 °F 90% 30.03 in 0.8 mi Calm Calm - N/A   Mist